Year,Month,Day,Hour,Minute,Value (Times are PST for temperature in C)
2017,06,25,00,00,15.50
2017,06,25,00,01,15.50
2017,06,25,00,02,15.50
2017,06,25,00,03,15.40
2017,06,25,00,04,15.50
2017,06,25,00,05,15.50
2017,06,25,00,06,15.60
2017,06,25,00,07,15.60
2017,06,25,00,08,15.70
2017,06,25,00,09,15.70
2017,06,25,00,10,15.70
2017,06,25,00,11,15.80
2017,06,25,00,12,15.80
2017,06,25,00,13,15.80
2017,06,25,00,14,15.80
2017,06,25,00,15,15.80
2017,06,25,00,16,15.80
2017,06,25,00,17,15.80
2017,06,25,00,18,15.80
2017,06,25,00,19,15.80
2017,06,25,00,20,15.80
2017,06,25,00,21,15.70
2017,06,25,00,22,15.70
2017,06,25,00,23,15.70
2017,06,25,00,24,15.70
2017,06,25,00,25,15.60
2017,06,25,00,26,15.60
2017,06,25,00,27,15.60
2017,06,25,00,28,15.60
2017,06,25,00,29,15.60
2017,06,25,00,30,15.50
2017,06,25,00,31,15.50
2017,06,25,00,32,15.50
2017,06,25,00,33,15.50
2017,06,25,00,34,15.40
2017,06,25,00,35,15.40
2017,06,25,00,36,15.40
2017,06,25,00,37,15.40
2017,06,25,00,38,15.30
2017,06,25,00,39,15.30
2017,06,25,00,40,15.30
2017,06,25,00,41,15.30
2017,06,25,00,42,15.20
2017,06,25,00,43,15.20
2017,06,25,00,44,15.20
2017,06,25,00,45,15.20
2017,06,25,00,46,15.20
2017,06,25,00,47,15.20
2017,06,25,00,48,15.20
2017,06,25,00,49,15.20
2017,06,25,00,50,15.20
2017,06,25,00,51,15.20
2017,06,25,00,52,15.20
2017,06,25,00,53,15.20
2017,06,25,00,54,15.20
2017,06,25,00,55,15.20
2017,06,25,00,56,15.20
2017,06,25,00,57,15.20
2017,06,25,00,58,15.20
2017,06,25,00,59,15.20
2017,06,25,01,00,15.20
2017,06,25,01,01,15.20
2017,06,25,01,02,15.20
2017,06,25,01,03,15.20
2017,06,25,01,04,15.20
2017,06,25,01,05,15.20
2017,06,25,01,06,15.20
2017,06,25,01,07,15.20
2017,06,25,01,08,15.20
2017,06,25,01,09,15.20
2017,06,25,01,10,15.20
2017,06,25,01,11,15.20
2017,06,25,01,12,15.20
2017,06,25,01,13,15.20
2017,06,25,01,14,15.20
2017,06,25,01,15,15.20
2017,06,25,01,16,15.20
2017,06,25,01,17,15.20
2017,06,25,01,18,15.20
2017,06,25,01,19,15.20
2017,06,25,01,20,15.20
2017,06,25,01,21,15.20
2017,06,25,01,22,15.20
2017,06,25,01,23,15.20
2017,06,25,01,24,15.20
2017,06,25,01,25,15.10
2017,06,25,01,26,15.10
2017,06,25,01,27,15.10
2017,06,25,01,28,15.10
2017,06,25,01,29,15.00
2017,06,25,01,30,15.00
2017,06,25,01,31,15.00
2017,06,25,01,32,14.90
2017,06,25,01,33,14.90
2017,06,25,01,34,14.90
2017,06,25,01,35,14.90
2017,06,25,01,36,14.90
2017,06,25,01,37,14.90
2017,06,25,01,38,14.90
2017,06,25,01,39,14.80
2017,06,25,01,40,14.80
2017,06,25,01,41,14.80
2017,06,25,01,42,14.80
2017,06,25,01,43,14.80
2017,06,25,01,44,14.70
2017,06,25,01,45,14.70
2017,06,25,01,46,14.70
2017,06,25,01,47,14.70
2017,06,25,01,48,14.70
2017,06,25,01,49,14.60
2017,06,25,01,50,14.60
2017,06,25,01,51,14.60
2017,06,25,01,52,14.60
2017,06,25,01,53,14.60
2017,06,25,01,54,14.60
2017,06,25,01,55,14.60
2017,06,25,01,56,14.60
2017,06,25,01,57,14.60
2017,06,25,01,58,14.70
2017,06,25,01,59,14.70
2017,06,25,02,00,14.70
2017,06,25,02,01,14.70
2017,06,25,02,02,14.70
2017,06,25,02,03,14.70
2017,06,25,02,04,14.70
2017,06,25,02,05,14.70
2017,06,25,02,06,14.70
2017,06,25,02,07,14.60
2017,06,25,02,08,14.60
2017,06,25,02,09,14.60
2017,06,25,02,10,14.60
2017,06,25,02,11,14.60
2017,06,25,02,12,14.60
2017,06,25,02,13,14.60
2017,06,25,02,14,14.60
2017,06,25,02,15,14.60
2017,06,25,02,16,14.60
2017,06,25,02,17,14.60
2017,06,25,02,18,14.60
2017,06,25,02,19,14.60
2017,06,25,02,20,14.60
2017,06,25,02,21,14.60
2017,06,25,02,22,14.60
2017,06,25,02,23,14.60
2017,06,25,02,24,14.60
2017,06,25,02,25,14.60
2017,06,25,02,26,14.60
2017,06,25,02,27,14.60
2017,06,25,02,28,14.60
2017,06,25,02,29,14.60
2017,06,25,02,30,14.60
2017,06,25,02,31,14.60
2017,06,25,02,32,14.60
2017,06,25,02,33,14.60
2017,06,25,02,34,14.60
2017,06,25,02,35,14.60
2017,06,25,02,36,14.60
2017,06,25,02,37,14.60
2017,06,25,02,38,14.60
2017,06,25,02,39,14.70
2017,06,25,02,40,14.70
2017,06,25,02,41,14.70
2017,06,25,02,42,14.70
2017,06,25,02,43,14.60
2017,06,25,02,44,14.60
2017,06,25,02,45,14.60
2017,06,25,02,46,14.60
2017,06,25,02,47,14.60
2017,06,25,02,48,14.60
2017,06,25,02,49,14.60
2017,06,25,02,50,14.60
2017,06,25,02,51,14.60
2017,06,25,02,52,14.60
2017,06,25,02,53,14.60
2017,06,25,02,54,14.60
2017,06,25,02,55,14.60
2017,06,25,02,56,14.60
2017,06,25,02,57,14.60
2017,06,25,02,58,14.60
2017,06,25,02,59,14.60
2017,06,25,03,00,14.60
2017,06,25,03,01,14.60
2017,06,25,03,02,14.60
2017,06,25,03,03,14.50
2017,06,25,03,04,14.50
2017,06,25,03,05,14.50
2017,06,25,03,06,14.40
2017,06,25,03,07,14.40
2017,06,25,03,08,14.40
2017,06,25,03,09,14.30
2017,06,25,03,10,14.30
2017,06,25,03,11,14.30
2017,06,25,03,12,14.30
2017,06,25,03,13,14.20
2017,06,25,03,14,14.20
2017,06,25,03,15,14.20
2017,06,25,03,16,14.10
2017,06,25,03,17,14.10
2017,06,25,03,18,14.10
2017,06,25,03,19,14.10
2017,06,25,03,20,14.00
2017,06,25,03,21,14.00
2017,06,25,03,22,14.00
2017,06,25,03,23,13.90
2017,06,25,03,24,13.90
2017,06,25,03,25,13.90
2017,06,25,03,26,13.80
2017,06,25,03,27,13.80
2017,06,25,03,28,13.80
2017,06,25,03,29,13.80
2017,06,25,03,30,13.80
2017,06,25,03,31,13.70
2017,06,25,03,32,13.70
2017,06,25,03,33,13.70
2017,06,25,03,34,13.70
2017,06,25,03,35,13.70
2017,06,25,03,36,13.60
2017,06,25,03,37,13.60
2017,06,25,03,38,13.60
2017,06,25,03,39,13.60
2017,06,25,03,40,13.60
2017,06,25,03,41,13.60
2017,06,25,03,42,13.60
2017,06,25,03,43,13.60
2017,06,25,03,44,13.60
2017,06,25,03,45,13.60
2017,06,25,03,46,13.60
2017,06,25,03,47,13.60
2017,06,25,03,48,13.60
2017,06,25,03,49,13.60
2017,06,25,03,50,13.60
2017,06,25,03,51,13.60
2017,06,25,03,52,13.60
2017,06,25,03,53,13.50
2017,06,25,03,54,13.50
2017,06,25,03,55,13.50
2017,06,25,03,56,13.50
2017,06,25,03,57,13.50
2017,06,25,03,58,13.40
2017,06,25,03,59,13.40
2017,06,25,04,00,13.40
2017,06,25,04,01,13.40
2017,06,25,04,02,13.40
2017,06,25,04,03,13.40
2017,06,25,04,04,13.40
2017,06,25,04,05,13.40
2017,06,25,04,06,13.40
2017,06,25,04,07,13.40
2017,06,25,04,08,13.40
2017,06,25,04,09,13.40
2017,06,25,04,10,13.40
2017,06,25,04,11,13.40
2017,06,25,04,12,13.40
2017,06,25,04,13,13.40
2017,06,25,04,14,13.30
2017,06,25,04,15,13.30
2017,06,25,04,16,13.30
2017,06,25,04,17,13.30
2017,06,25,04,18,13.30
2017,06,25,04,19,13.30
2017,06,25,04,20,13.30
2017,06,25,04,21,13.20
2017,06,25,04,22,13.20
2017,06,25,04,23,13.20
2017,06,25,04,24,13.20
2017,06,25,04,25,13.20
2017,06,25,04,26,13.20
2017,06,25,04,27,13.20
2017,06,25,04,28,13.20
2017,06,25,04,29,13.20
2017,06,25,04,30,13.20
2017,06,25,04,31,13.20
2017,06,25,04,32,13.20
2017,06,25,04,33,13.10
2017,06,25,04,34,13.10
2017,06,25,04,35,13.10
2017,06,25,04,36,13.10
2017,06,25,04,37,13.10
2017,06,25,04,38,13.10
2017,06,25,04,39,13.10
2017,06,25,04,40,13.10
2017,06,25,04,41,13.10
2017,06,25,04,42,13.00
2017,06,25,04,43,13.00
2017,06,25,04,44,13.00
2017,06,25,04,45,13.00
2017,06,25,04,46,13.00
2017,06,25,04,47,12.90
2017,06,25,04,48,12.90
2017,06,25,04,49,12.90
2017,06,25,04,50,12.90
2017,06,25,04,51,12.90
2017,06,25,04,52,12.90
2017,06,25,04,53,12.90
2017,06,25,04,54,12.90
2017,06,25,04,55,12.90
2017,06,25,04,56,12.90
2017,06,25,04,57,12.90
2017,06,25,04,58,12.90
2017,06,25,04,59,12.90
2017,06,25,05,00,12.90
2017,06,25,05,01,13.00
2017,06,25,05,02,13.00
2017,06,25,05,03,13.10
2017,06,25,05,04,13.20
2017,06,25,05,05,13.20
2017,06,25,05,06,13.30
2017,06,25,05,07,13.30
2017,06,25,05,08,13.30
2017,06,25,05,09,13.40
2017,06,25,05,10,13.40
2017,06,25,05,11,13.40
2017,06,25,05,12,13.40
2017,06,25,05,13,13.40
2017,06,25,05,14,13.50
2017,06,25,05,15,13.50
2017,06,25,05,16,13.60
2017,06,25,05,17,13.60
2017,06,25,05,18,13.60
2017,06,25,05,19,13.70
2017,06,25,05,20,13.70
2017,06,25,05,21,13.80
2017,06,25,05,22,13.80
2017,06,25,05,23,13.80
2017,06,25,05,24,13.90
2017,06,25,05,25,13.90
2017,06,25,05,26,13.90
2017,06,25,05,27,13.90
2017,06,25,05,28,13.90
2017,06,25,05,29,13.90
2017,06,25,05,30,13.90
2017,06,25,05,31,14.00
2017,06,25,05,32,14.00
2017,06,25,05,33,14.00
2017,06,25,05,34,14.00
2017,06,25,05,35,14.00
2017,06,25,05,36,14.00
2017,06,25,05,37,14.00
2017,06,25,05,38,14.00
2017,06,25,05,39,14.00
2017,06,25,05,40,14.00
2017,06,25,05,41,14.00
2017,06,25,05,42,14.00
2017,06,25,05,43,14.00
2017,06,25,05,44,14.00
2017,06,25,05,45,14.00
2017,06,25,05,46,14.10
2017,06,25,05,47,14.10
2017,06,25,05,48,14.10
2017,06,25,05,49,14.10
2017,06,25,05,50,14.10
2017,06,25,05,51,14.10
2017,06,25,05,52,14.10
2017,06,25,05,53,14.10
2017,06,25,05,54,14.10
2017,06,25,05,55,14.10
2017,06,25,05,56,14.10
2017,06,25,05,57,14.10
2017,06,25,05,58,14.20
2017,06,25,05,59,14.20
2017,06,25,06,00,14.20
2017,06,25,06,01,14.20
2017,06,25,06,02,14.30
2017,06,25,06,03,14.30
2017,06,25,06,04,14.30
2017,06,25,06,05,14.40
2017,06,25,06,06,14.40
2017,06,25,06,07,14.40
2017,06,25,06,08,14.50
2017,06,25,06,09,14.50
2017,06,25,06,10,14.60
2017,06,25,06,11,14.60
2017,06,25,06,12,14.70
2017,06,25,06,13,14.70
2017,06,25,06,14,14.80
2017,06,25,06,15,14.80
2017,06,25,06,16,14.90
2017,06,25,06,17,14.90
2017,06,25,06,18,15.00
2017,06,25,06,19,15.10
2017,06,25,06,20,15.10
2017,06,25,06,21,15.20
2017,06,25,06,22,15.20
2017,06,25,06,23,15.30
2017,06,25,06,24,15.30
2017,06,25,06,25,15.40
2017,06,25,06,26,15.40
2017,06,25,06,27,15.50
2017,06,25,06,28,15.50
2017,06,25,06,29,15.60
2017,06,25,06,30,15.60
2017,06,25,06,31,15.70
2017,06,25,06,32,15.80
2017,06,25,06,33,15.80
2017,06,25,06,34,15.90
2017,06,25,06,35,16.00
2017,06,25,06,36,16.10
2017,06,25,06,37,16.20
2017,06,25,06,38,16.30
2017,06,25,06,39,16.40
2017,06,25,06,40,16.50
2017,06,25,06,41,16.60
2017,06,25,06,42,16.70
2017,06,25,06,43,16.80
2017,06,25,06,44,16.90
2017,06,25,06,45,17.00
2017,06,25,06,46,17.10
2017,06,25,06,47,17.10
2017,06,25,06,48,17.20
2017,06,25,06,49,17.30
2017,06,25,06,50,17.30
2017,06,25,06,51,17.30
2017,06,25,06,52,17.40
2017,06,25,06,53,17.40
2017,06,25,06,54,17.40
2017,06,25,06,55,17.50
2017,06,25,06,56,17.50
2017,06,25,06,57,17.50
2017,06,25,06,58,17.50
2017,06,25,06,59,17.50
2017,06,25,07,00,17.60
2017,06,25,07,01,17.60
2017,06,25,07,02,17.60
2017,06,25,07,03,17.60
2017,06,25,07,04,17.70
2017,06,25,07,05,17.70
2017,06,25,07,06,17.70
2017,06,25,07,07,17.80
2017,06,25,07,08,17.80
2017,06,25,07,09,17.80
2017,06,25,07,10,17.90
2017,06,25,07,11,17.90
2017,06,25,07,12,17.90
2017,06,25,07,13,18.00
2017,06,25,07,14,18.00
2017,06,25,07,15,18.00
2017,06,25,07,16,18.10
2017,06,25,07,17,18.20
2017,06,25,07,18,18.20
2017,06,25,07,19,18.30
2017,06,25,07,20,18.40
2017,06,25,07,21,18.50
2017,06,25,07,22,18.50
2017,06,25,07,23,18.60
2017,06,25,07,24,18.60
2017,06,25,07,25,18.70
2017,06,25,07,26,18.70
2017,06,25,07,27,18.80
2017,06,25,07,28,18.80
2017,06,25,07,29,18.80
2017,06,25,07,30,18.90
2017,06,25,07,31,18.90
2017,06,25,07,32,19.00
2017,06,25,07,33,19.00
2017,06,25,07,34,19.10
2017,06,25,07,35,19.10
2017,06,25,07,36,19.10
2017,06,25,07,37,19.10
2017,06,25,07,38,19.10
2017,06,25,07,39,19.10
2017,06,25,07,40,19.10
2017,06,25,07,41,19.10
2017,06,25,07,42,19.10
2017,06,25,07,43,19.10
2017,06,25,07,44,19.10
2017,06,25,07,45,19.00
2017,06,25,07,46,19.00
2017,06,25,07,47,18.90
2017,06,25,07,48,18.90
2017,06,25,07,49,18.80
2017,06,25,07,50,18.80
2017,06,25,07,51,18.70
2017,06,25,07,52,18.70
2017,06,25,07,53,18.70
2017,06,25,07,54,18.70
2017,06,25,07,55,18.70
2017,06,25,07,56,18.70
2017,06,25,07,57,18.70
2017,06,25,07,58,18.70
2017,06,25,07,59,18.70
2017,06,25,08,00,18.60
2017,06,25,08,01,18.60
2017,06,25,08,02,18.60
2017,06,25,08,03,18.60
2017,06,25,08,04,18.60
2017,06,25,08,05,18.70
2017,06,25,08,06,18.70
2017,06,25,08,07,18.80
2017,06,25,08,08,18.80
2017,06,25,08,09,18.90
2017,06,25,08,10,19.00
2017,06,25,08,11,19.10
2017,06,25,08,12,19.20
2017,06,25,08,13,19.30
2017,06,25,08,14,19.40
2017,06,25,08,15,19.50
2017,06,25,08,16,19.50
2017,06,25,08,17,19.60
2017,06,25,08,18,19.70
2017,06,25,08,19,19.80
2017,06,25,08,20,19.80
2017,06,25,08,21,19.90
2017,06,25,08,22,20.00
2017,06,25,08,23,20.10
2017,06,25,08,24,20.10
2017,06,25,08,25,20.20
2017,06,25,08,26,20.30
2017,06,25,08,27,20.30
2017,06,25,08,28,20.40
2017,06,25,08,29,20.50
2017,06,25,08,30,20.60
2017,06,25,08,31,20.70
2017,06,25,08,32,20.80
2017,06,25,08,33,20.80
2017,06,25,08,34,20.90
2017,06,25,08,35,21.00
2017,06,25,08,36,21.00
2017,06,25,08,37,21.10
2017,06,25,08,38,21.20
2017,06,25,08,39,21.20
2017,06,25,08,40,21.30
2017,06,25,08,41,21.30
2017,06,25,08,42,21.30
2017,06,25,08,43,21.40
2017,06,25,08,44,21.40
2017,06,25,08,45,21.40
2017,06,25,08,46,21.50
2017,06,25,08,47,21.50
2017,06,25,08,48,21.50
2017,06,25,08,49,21.50
2017,06,25,08,50,21.60
2017,06,25,08,51,21.60
2017,06,25,08,52,21.60
2017,06,25,08,53,21.60
2017,06,25,08,54,21.70
2017,06,25,08,55,21.70
2017,06,25,08,56,21.70
2017,06,25,08,57,21.80
2017,06,25,08,58,21.80
2017,06,25,08,59,21.80
2017,06,25,09,00,21.80
2017,06,25,09,01,21.80
2017,06,25,09,02,21.90
2017,06,25,09,03,21.90
2017,06,25,09,04,21.90
2017,06,25,09,05,21.90
2017,06,25,09,06,21.90
2017,06,25,09,07,21.90
2017,06,25,09,08,21.90
2017,06,25,09,09,21.90
2017,06,25,09,10,21.90
2017,06,25,09,11,21.90
2017,06,25,09,12,21.90
2017,06,25,09,13,21.90
2017,06,25,09,14,21.90
2017,06,25,09,15,21.90
2017,06,25,09,16,21.90
2017,06,25,09,17,21.90
2017,06,25,09,18,21.90
2017,06,25,09,19,21.90
2017,06,25,09,20,21.90
2017,06,25,09,21,21.90
2017,06,25,09,22,21.90
2017,06,25,09,23,21.90
2017,06,25,09,24,21.90
2017,06,25,09,25,21.90
2017,06,25,09,26,21.90
2017,06,25,09,27,21.90
2017,06,25,09,28,21.90
2017,06,25,09,29,21.90
2017,06,25,09,30,21.90
2017,06,25,09,31,22.00
2017,06,25,09,32,22.00
2017,06,25,09,33,22.00
2017,06,25,09,34,22.10
2017,06,25,09,35,22.10
2017,06,25,09,36,22.10
2017,06,25,09,37,22.10
2017,06,25,09,38,22.10
2017,06,25,09,39,22.10
2017,06,25,09,40,22.20
2017,06,25,09,41,22.20
2017,06,25,09,42,22.30
2017,06,25,09,43,22.30
2017,06,25,09,44,22.40
2017,06,25,09,45,22.40
2017,06,25,09,46,22.40
2017,06,25,09,47,22.50
2017,06,25,09,48,22.50
2017,06,25,09,49,22.60
2017,06,25,09,50,22.70
2017,06,25,09,51,22.70
2017,06,25,09,52,22.80
2017,06,25,09,53,22.80
2017,06,25,09,54,22.90
2017,06,25,09,55,22.90
2017,06,25,09,56,23.00
2017,06,25,09,57,23.10
2017,06,25,09,58,23.10
2017,06,25,09,59,23.10
2017,06,25,10,00,23.20
2017,06,25,10,01,23.20
2017,06,25,10,02,23.20
2017,06,25,10,03,23.20
2017,06,25,10,04,23.20
2017,06,25,10,05,23.20
2017,06,25,10,06,23.20
2017,06,25,10,07,23.20
2017,06,25,10,08,23.10
2017,06,25,10,09,23.10
2017,06,25,10,10,23.10
2017,06,25,10,11,23.10
2017,06,25,10,12,23.10
2017,06,25,10,13,23.00
2017,06,25,10,14,23.00
2017,06,25,10,15,23.00
2017,06,25,10,16,23.00
2017,06,25,10,17,23.00
2017,06,25,10,18,23.00
2017,06,25,10,19,23.00
2017,06,25,10,20,23.10
2017,06,25,10,21,23.10
2017,06,25,10,22,23.10
2017,06,25,10,23,23.10
2017,06,25,10,24,23.20
2017,06,25,10,25,23.20
2017,06,25,10,26,23.30
2017,06,25,10,27,23.30
2017,06,25,10,28,23.40
2017,06,25,10,29,23.40
2017,06,25,10,30,23.50
2017,06,25,10,31,23.50
2017,06,25,10,32,23.50
2017,06,25,10,33,23.50
2017,06,25,10,34,23.60
2017,06,25,10,35,23.60
2017,06,25,10,36,23.60
2017,06,25,10,37,23.60
2017,06,25,10,38,23.60
2017,06,25,10,39,23.60
2017,06,25,10,40,23.70
2017,06,25,10,41,23.70
2017,06,25,10,42,23.70
2017,06,25,10,43,23.70
2017,06,25,10,44,23.80
2017,06,25,10,45,23.80
2017,06,25,10,46,23.80
2017,06,25,10,47,23.80
2017,06,25,10,48,23.80
2017,06,25,10,49,23.80
2017,06,25,10,50,23.80
2017,06,25,10,51,23.80
2017,06,25,10,52,23.70
2017,06,25,10,53,23.70
2017,06,25,10,54,23.70
2017,06,25,10,55,23.60
2017,06,25,10,56,23.60
2017,06,25,10,57,23.60
2017,06,25,10,58,23.50
2017,06,25,10,59,23.50
2017,06,25,11,00,23.50
2017,06,25,11,01,23.40
2017,06,25,11,02,23.40
2017,06,25,11,03,23.40
2017,06,25,11,04,23.40
2017,06,25,11,05,23.40
2017,06,25,11,06,23.40
2017,06,25,11,07,23.40
2017,06,25,11,08,23.40
2017,06,25,11,09,23.40
2017,06,25,11,10,23.30
2017,06,25,11,11,23.30
2017,06,25,11,12,23.30
2017,06,25,11,13,23.30
2017,06,25,11,14,23.30
2017,06,25,11,15,23.30
2017,06,25,11,16,23.20
2017,06,25,11,17,23.20
2017,06,25,11,18,23.20
2017,06,25,11,19,23.10
2017,06,25,11,20,23.10
2017,06,25,11,21,23.10
2017,06,25,11,22,23.20
2017,06,25,11,23,23.20
2017,06,25,11,24,23.20
2017,06,25,11,25,23.20
2017,06,25,11,26,23.20
2017,06,25,11,27,23.30
2017,06,25,11,28,23.30
2017,06,25,11,29,23.30
2017,06,25,11,30,23.30
2017,06,25,11,31,23.30
2017,06,25,11,32,23.30
2017,06,25,11,33,23.30
2017,06,25,11,34,23.30
2017,06,25,11,35,23.30
2017,06,25,11,36,23.40
2017,06,25,11,37,23.40
2017,06,25,11,38,23.40
2017,06,25,11,39,23.30
2017,06,25,11,40,23.30
2017,06,25,11,41,23.30
2017,06,25,11,42,23.20
2017,06,25,11,43,23.20
2017,06,25,11,44,23.20
2017,06,25,11,45,23.20
2017,06,25,11,46,23.20
2017,06,25,11,47,23.20
2017,06,25,11,48,23.20
2017,06,25,11,49,23.20
2017,06,25,11,50,23.20
2017,06,25,11,51,23.20
2017,06,25,11,52,23.20
2017,06,25,11,53,23.20
2017,06,25,11,54,23.20
2017,06,25,11,55,23.30
2017,06,25,11,56,23.30
2017,06,25,11,57,23.30
2017,06,25,11,58,23.30
2017,06,25,11,59,23.40
2017,06,25,12,00,23.40
2017,06,25,12,01,23.40
2017,06,25,12,02,23.50
2017,06,25,12,03,23.60
2017,06,25,12,04,23.60
2017,06,25,12,05,23.60
2017,06,25,12,06,23.60
2017,06,25,12,07,23.60
2017,06,25,12,08,23.70
2017,06,25,12,09,23.70
2017,06,25,12,10,23.70
2017,06,25,12,11,23.70
2017,06,25,12,12,23.70
2017,06,25,12,13,23.70
2017,06,25,12,14,23.70
2017,06,25,12,15,23.70
2017,06,25,12,16,23.70
2017,06,25,12,17,23.80
2017,06,25,12,18,23.80
2017,06,25,12,19,23.80
2017,06,25,12,20,23.80
2017,06,25,12,21,23.80
2017,06,25,12,22,23.90
2017,06,25,12,23,23.90
2017,06,25,12,24,23.90
2017,06,25,12,25,23.90
2017,06,25,12,26,23.90
2017,06,25,12,27,23.90
2017,06,25,12,28,23.90
2017,06,25,12,29,23.90
2017,06,25,12,30,23.90
2017,06,25,12,31,23.90
2017,06,25,12,32,23.90
2017,06,25,12,33,23.90
2017,06,25,12,34,23.90
2017,06,25,12,35,23.90
2017,06,25,12,36,23.90
2017,06,25,12,37,23.90
2017,06,25,12,38,23.90
2017,06,25,12,39,23.90
2017,06,25,12,40,23.90
2017,06,25,12,41,23.90
2017,06,25,12,42,23.90
2017,06,25,12,43,23.90
2017,06,25,12,44,23.90
2017,06,25,12,45,23.90
2017,06,25,12,46,23.90
2017,06,25,12,47,23.90
2017,06,25,12,48,24.00
2017,06,25,12,49,24.00
2017,06,25,12,50,24.10
2017,06,25,12,51,24.10
2017,06,25,12,52,24.20
2017,06,25,12,53,24.30
2017,06,25,12,54,24.30
2017,06,25,12,55,24.40
2017,06,25,12,56,24.50
2017,06,25,12,57,24.50
2017,06,25,12,58,24.60
2017,06,25,12,59,24.60
2017,06,25,13,00,24.70
2017,06,25,13,01,24.80
2017,06,25,13,02,24.80
2017,06,25,13,03,24.90
2017,06,25,13,04,24.90
2017,06,25,13,05,25.00
2017,06,25,13,06,25.00
2017,06,25,13,07,25.10
2017,06,25,13,08,25.10
2017,06,25,13,09,25.20
2017,06,25,13,10,25.10
2017,06,25,13,11,25.10
2017,06,25,13,12,25.10
2017,06,25,13,13,25.10
2017,06,25,13,14,25.10
2017,06,25,13,15,25.10
2017,06,25,13,16,25.10
2017,06,25,13,17,25.10
2017,06,25,13,18,25.00
2017,06,25,13,19,25.00
2017,06,25,13,20,25.00
2017,06,25,13,21,24.90
2017,06,25,13,22,24.90
2017,06,25,13,23,24.90
2017,06,25,13,24,24.90
2017,06,25,13,25,24.90
2017,06,25,13,26,24.90
2017,06,25,13,27,24.90
2017,06,25,13,28,24.90
2017,06,25,13,29,24.90
2017,06,25,13,30,24.90
2017,06,25,13,31,24.90
2017,06,25,13,32,25.00
2017,06,25,13,33,25.00
2017,06,25,13,34,25.00
2017,06,25,13,35,25.10
2017,06,25,13,36,25.10
2017,06,25,13,37,25.10
2017,06,25,13,38,25.10
2017,06,25,13,39,25.20
2017,06,25,13,40,25.20
2017,06,25,13,41,25.20
2017,06,25,13,42,25.30
2017,06,25,13,43,25.30
2017,06,25,13,44,25.30
2017,06,25,13,45,25.30
2017,06,25,13,46,25.30
2017,06,25,13,47,25.40
2017,06,25,13,48,25.40
2017,06,25,13,49,25.50
2017,06,25,13,50,25.50
2017,06,25,13,51,25.60
2017,06,25,13,52,25.60
2017,06,25,13,53,25.60
2017,06,25,13,54,25.70
2017,06,25,13,55,25.70
2017,06,25,13,56,25.70
2017,06,25,13,57,25.70
2017,06,25,13,58,25.70
2017,06,25,13,59,25.70
2017,06,25,14,00,25.70
2017,06,25,14,01,25.70
2017,06,25,14,02,25.70
2017,06,25,14,03,25.70
2017,06,25,14,04,25.70
2017,06,25,14,05,25.70
2017,06,25,14,06,25.70
2017,06,25,14,07,25.70
2017,06,25,14,08,25.80
2017,06,25,14,09,25.80
2017,06,25,14,10,25.80
2017,06,25,14,11,25.90
2017,06,25,14,12,25.90
2017,06,25,14,13,26.00
2017,06,25,14,14,26.10
2017,06,25,14,15,26.10
2017,06,25,14,16,26.10
2017,06,25,14,17,26.10
2017,06,25,14,18,26.10
2017,06,25,14,19,26.10
2017,06,25,14,20,26.10
2017,06,25,14,21,26.10
2017,06,25,14,22,26.20
2017,06,25,14,23,26.20
2017,06,25,14,24,26.30
2017,06,25,14,25,26.30
2017,06,25,14,26,26.30
2017,06,25,14,27,26.30
2017,06,25,14,28,26.40
2017,06,25,14,29,26.40
2017,06,25,14,30,26.40
2017,06,25,14,31,26.40
2017,06,25,14,32,26.40
2017,06,25,14,33,26.40
2017,06,25,14,34,26.40
2017,06,25,14,35,26.40
2017,06,25,14,36,26.30
2017,06,25,14,37,26.30
2017,06,25,14,38,26.30
2017,06,25,14,39,26.30
2017,06,25,14,40,26.40
2017,06,25,14,41,26.40
2017,06,25,14,42,26.40
2017,06,25,14,43,26.50
2017,06,25,14,44,26.50
2017,06,25,14,45,26.60
2017,06,25,14,46,26.60
2017,06,25,14,47,26.60
2017,06,25,14,48,26.70
2017,06,25,14,49,26.80
2017,06,25,14,50,26.80
2017,06,25,14,51,26.80
2017,06,25,14,52,26.80
2017,06,25,14,53,26.80
2017,06,25,14,54,26.80
2017,06,25,14,55,26.80
2017,06,25,14,56,26.80
2017,06,25,14,57,26.80
2017,06,25,14,58,26.80
2017,06,25,14,59,26.80
2017,06,25,15,00,26.90
2017,06,25,15,01,26.90
2017,06,25,15,02,26.90
2017,06,25,15,03,26.90
2017,06,25,15,04,26.90
2017,06,25,15,05,27.00
2017,06,25,15,06,27.00
2017,06,25,15,07,26.90
2017,06,25,15,08,26.90
2017,06,25,15,09,26.90
2017,06,25,15,10,26.80
2017,06,25,15,11,26.80
2017,06,25,15,12,26.80
2017,06,25,15,13,26.80
2017,06,25,15,14,26.70
2017,06,25,15,15,26.70
2017,06,25,15,16,26.70
2017,06,25,15,17,26.70
2017,06,25,15,18,26.60
2017,06,25,15,19,26.60
2017,06,25,15,20,26.60
2017,06,25,15,21,26.60
2017,06,25,15,22,26.50
2017,06,25,15,23,26.50
2017,06,25,15,24,26.40
2017,06,25,15,25,26.40
2017,06,25,15,26,26.40
2017,06,25,15,27,26.40
2017,06,25,15,28,26.30
2017,06,25,15,29,26.30
2017,06,25,15,30,26.30
2017,06,25,15,31,26.30
2017,06,25,15,32,26.30
2017,06,25,15,33,26.30
2017,06,25,15,34,26.20
2017,06,25,15,35,26.20
2017,06,25,15,36,26.20
2017,06,25,15,37,26.20
2017,06,25,15,38,26.20
2017,06,25,15,39,26.20
2017,06,25,15,40,26.30
2017,06,25,15,41,26.30
2017,06,25,15,42,26.30
2017,06,25,15,43,26.30
2017,06,25,15,44,26.30
2017,06,25,15,45,26.30
2017,06,25,15,46,26.30
2017,06,25,15,47,26.30
2017,06,25,15,48,26.30
2017,06,25,15,49,26.40
2017,06,25,15,50,26.40
2017,06,25,15,51,26.40
2017,06,25,15,52,26.30
2017,06,25,15,53,26.10
2017,06,25,15,54,25.70
2017,06,25,15,55,25.30
2017,06,25,15,56,25.00
2017,06,25,15,57,24.80
2017,06,25,15,58,24.70
2017,06,25,15,59,24.70
2017,06,25,16,00,24.50
2017,06,25,16,01,24.30
2017,06,25,16,02,24.00
2017,06,25,16,03,23.70
2017,06,25,16,04,23.40
2017,06,25,16,05,23.30
2017,06,25,16,06,23.20
2017,06,25,16,07,23.30
2017,06,25,16,08,23.30
2017,06,25,16,09,23.50
2017,06,25,16,10,23.80
2017,06,25,16,11,24.30
2017,06,25,16,12,24.70
2017,06,25,16,13,25.10
2017,06,25,16,14,25.40
2017,06,25,16,15,25.60
2017,06,25,16,16,25.80
2017,06,25,16,17,26.00
2017,06,25,16,18,26.20
2017,06,25,16,19,26.40
2017,06,25,16,20,26.50
2017,06,25,16,21,26.60
2017,06,25,16,22,26.70
2017,06,25,16,23,26.80
2017,06,25,16,24,26.90
2017,06,25,16,25,26.90
2017,06,25,16,26,26.90
2017,06,25,16,27,26.90
2017,06,25,16,28,27.00
2017,06,25,16,29,27.00
2017,06,25,16,30,27.00
2017,06,25,16,31,27.00
2017,06,25,16,32,27.00
2017,06,25,16,33,27.00
2017,06,25,16,34,27.00
2017,06,25,16,35,27.00
2017,06,25,16,36,27.00
2017,06,25,16,37,27.00
2017,06,25,16,38,27.00
2017,06,25,16,39,27.10
2017,06,25,16,40,27.10
2017,06,25,16,41,27.10
2017,06,25,16,42,27.10
2017,06,25,16,43,27.20
2017,06,25,16,44,27.20
2017,06,25,16,45,27.20
2017,06,25,16,46,27.20
2017,06,25,16,47,27.30
2017,06,25,16,48,27.30
2017,06,25,16,49,27.30
2017,06,25,16,50,27.40
2017,06,25,16,51,27.40
2017,06,25,16,52,27.50
2017,06,25,16,53,27.60
2017,06,25,16,54,27.60
2017,06,25,16,55,27.70
2017,06,25,16,56,27.70
2017,06,25,16,57,27.80
2017,06,25,16,58,27.90
2017,06,25,16,59,27.90
2017,06,25,17,00,28.00
2017,06,25,17,01,28.00
2017,06,25,17,02,28.10
2017,06,25,17,03,28.10
2017,06,25,17,04,28.10
2017,06,25,17,05,27.70
2017,06,25,17,06,27.00
2017,06,25,17,07,26.10
2017,06,25,17,08,25.10
2017,06,25,17,09,24.30
2017,06,25,17,10,23.60
2017,06,25,17,11,23.00
2017,06,25,17,12,22.60
2017,06,25,17,13,22.50
2017,06,25,17,14,22.60
2017,06,25,17,15,22.90
2017,06,25,17,16,23.40
2017,06,25,17,17,24.10
2017,06,25,17,18,24.70
2017,06,25,17,19,25.10